Change the Weather History Date:

Wednesday, February 12, 2014

  Actual Average Record
Temperature  
Mean Temperature 45 °F 34 °F  
Max Temperature 55 °F 43 °F 60 °F (2011)
Min Temperature 34 °F 26 °F 10 °F (1997)
Degree Days  
Heating Degree Days 20 30  
Month to date heating degree days 524 379  
Since 1 July heating degree days 4208 4053  
Cooling Degree Days 0 0  
Month to date cooling degree days 0 0  
Year to date cooling degree days 0 0  
Moisture  
Dew Point 34 °F    
Average Humidity 73    
Maximum Humidity 100    
Minimum Humidity 45    
Precipitation  
Precipitation 0.08 in 0.03 in 0.25 in (1998)
Month to date precipitation 0.35 0.40  
Year to date precipitation 0.75 1.54  
Sea Level Pressure  
Sea Level Pressure 29.73 in    
Wind  
Wind Speed 13 mph (SSW)    
Max Wind Speed 25 mph    
Max Gust Speed 31 mph    
Visibility 9 miles    
Events Rain    
T = Trace of Precipitation, MM = Missing Value Source: NWS Daily Summary

Daily Weather History Graph

Daily Weather History Graph

Search for Another Location

Airport or City:

Trip Planner

Search our weather history database for the weather conditions in past years. The results will help you decide how hot, cold, wet, or windy it might be!

Date:

Astronomy

Feb. 12, 2014 Rise Set
Actual Time 7:06 AM PST 5:16 PM PST
Civil Twilight 6:35 AM PST 5:48 PM PST
Nautical Twilight 5:59 AM PST 6:24 PM PST
Astronomical Twilight 5:23 AM PST 7:00 PM PST
Moon 3:32 PM PST (2/12) 5:30 AM PST (2/12)
Length of Visible Light 11h 13m
Length of Day
10h 10m
Waxing Gibbous, 96% of the Moon is Illuminated
Feb 12
Waxing Gibbous
Feb 14
Full
Feb 22
Last Quarter
Mar 1
New
Mar 8
First Quarter

Hourly Weather History & Observations

Time (PST) Temp. Windchill Dew Point Humidity Pressure Visibility Wind Dir Wind Speed Gust Speed Precip Events Conditions
12:00 AM 36.0 °F 29.0 °F 35.1 °F 97% 29.78 in 2.5 mi SSE 9.2 mph - 0.00 in Rain Light Rain
12:03 AM 36.0 °F 29.0 °F 35.1 °F 97% 29.78 in 3.0 mi SSE 9.2 mph - 0.01 in Rain Light Rain
12:52 AM 37.0 °F 28.5 °F 36.0 °F 96% 29.76 in 6.0 mi South 13.8 mph - 0.07 in Rain Light Rain
1:52 AM 37.9 °F 27.6 °F 37.0 °F 97% 29.68 in 10.0 mi SSE 20.7 mph - 0.01 in   Overcast
2:52 AM 39.0 °F 29.0 °F 37.0 °F 93% 29.61 in 10.0 mi South 20.7 mph 29.9 mph N/A   Overcast
3:52 AM 39.0 °F 29.0 °F 36.0 °F 89% 29.57 in 10.0 mi South 20.7 mph - N/A   Clear
4:52 AM 39.0 °F 30.6 °F 36.0 °F 89% 29.57 in 10.0 mi South 15.0 mph - N/A   Clear
5:52 AM 39.9 °F 31.1 °F 35.1 °F 83% 29.56 in 10.0 mi South 17.3 mph - N/A   Clear
6:52 AM 42.1 °F 34.5 °F 36.0 °F 79% 29.57 in 10.0 mi South 15.0 mph - N/A   Clear
7:52 AM 44.1 °F 37.7 °F 36.0 °F 73% 29.61 in 10.0 mi SSW 12.7 mph - N/A   Clear
8:52 AM 45.0 °F 37.6 °F 36.0 °F 71% 29.63 in 10.0 mi SSW 17.3 mph - N/A   Clear
9:52 AM 46.9 °F - 37.0 °F 68% 29.68 in 10.0 mi SW 15.0 mph - N/A   Clear
10:52 AM 48.9 °F - 35.1 °F 59% 29.72 in 10.0 mi WSW 18.4 mph - N/A   Clear
11:52 AM 52.0 °F - 33.1 °F 49% 29.74 in 10.0 mi West 23.0 mph - N/A   Clear
12:52 PM 53.1 °F - 33.1 °F 47% 29.76 in 10.0 mi WNW 8.1 mph - N/A   Clear
1:52 PM 54.0 °F - 34.0 °F 47% 29.91 in 10.0 mi WSW 12.7 mph - N/A   Clear
2:52 PM 54.0 °F - 32.0 °F 43% 29.91 in 10.0 mi WSW 12.7 mph - N/A   Clear
3:52 PM 53.1 °F - 32.0 °F 45% 29.92 in 10.0 mi SW 6.9 mph - N/A   Clear
4:52 PM 48.0 °F - 30.9 °F 52% 29.78 in 10.0 mi SSE 4.6 mph - N/A   Clear
5:52 PM 48.0 °F - 30.0 °F 50% 29.78 in 10.0 mi SW 3.5 mph - N/A   Clear
6:52 PM 42.1 °F 37.1 °F 32.0 °F 67% 29.78 in 10.0 mi SW 8.1 mph - N/A   Clear
7:52 PM 37.9 °F 33.5 °F 30.9 °F 76% 29.77 in 10.0 mi SSE 5.8 mph - N/A   Clear
8:52 PM 39.9 °F 33.9 °F 30.9 °F 70% 29.78 in 10.0 mi WSW 9.2 mph - N/A   Clear
9:52 PM 37.9 °F 32.1 °F 30.0 °F 73% 29.76 in 10.0 mi SW 8.1 mph - N/A   Clear
10:52 PM 39.9 °F 33.9 °F 30.0 °F 68% 29.74 in 10.0 mi SSW 9.2 mph - N/A   Clear
11:52 PM 35.1 °F 28.6 °F 28.9 °F 78% 29.70 in 10.0 mi SE 8.1 mph - N/A   Clear